Location: Chequamegon National Forest
(46.1070°N, 90.8420°W)
Time: 12:12:29
(UTC-05:00)

Amateur Radio Satellites - All Passes

Search period start: 30 July 2014 11:42
Search period end: 31 July 2014 11:42
Location: Chequamegon National Forest, 46.1070°N, 90.8420°W

Satellite Date Start Highest point End Downlink Frequencies (MHz)
Time Altitude Azimuth
FUNcube-1 30 Jul 11:45:51 11:50:02 83° 285° (WNW) 11:54:15 145.950 - 145.970 MHz USB
JAS-1B 30 Jul 11:47:28 11:51:03 13° 35° (NE) 11:54:40 435.800 - 435.900 CW/SSB
UKube-1 30 Jul 12:15:00 12:16:39 12° 302° (WNW) 12:18:17 145.840 MHz, 145.915 MHz
SO-50 30 Jul 12:19:21 12:23:28 38° 118° (ESE) 12:27:42 436.795 FM
KITSAT 1 30 Jul 12:31:50 12:37:57 23° 21° (NNE) 12:44:02 435.175 FM
Oscar 19 30 Jul 12:38:45 12:42:53 25° 63° (ENE) 12:47:02 437.125 CW, 437.150 USB
AO-Echo 30 Jul 12:44:26 12:47:31 16° 57° (ENE) 12:50:36 ?
Oscar 16 30 Jul 13:06:31 13:11:21 44° 68° (ENE) 13:16:13 437.025 USB, Beacon 2401.1428
HO-68 30 Jul 13:16:24 13:18:16 11° 319° (NW) 13:20:09 435.675 MHz FM
JAS-1B 30 Jul 13:30:24 13:38:45 40° 58° (ENE) 13:47:36 435.800 - 435.900 CW/SSB
ITAMSAT 1 30 Jul 13:30:51 13:35:32 35° 66° (ENE) 13:40:15 435.822 SSB
RS-15 30 Jul 13:34:49 13:45:40 63° 117° (ESE) 13:56:20 29.354 - 29.394 USB, Beacon 29.352 USB
Uribyol 2 30 Jul 13:49:28 13:54:30 53° 70° (ENE) 13:59:33 436.500 FM
AO-27 30 Jul 13:50:03 13:55:06 52° 69° (ENE) 14:00:09 436.795 MHz FM
AO-7 30 Jul 13:51:14 13:55:45 16° 40° (NE) 14:00:16 29.400 - 29.500 MHz
TMSAT-1 30 Jul 13:57:30 14:01:21 21° 60° (ENE) 14:05:13 436.925 FM
SO-50 30 Jul 14:00:01 14:04:05 33° 318° (NW) 14:08:16 436.795 FM
Saudisat 1A 30 Jul 14:04:19 14:06:36 14° 28° (NNE) 14:08:53 436.775 MHz
UOSAT-12 30 Jul 14:11:25 14:15:40 38° 118° (ESE) 14:20:01 437.025 FM, 437.400 FM
Oscar 19 30 Jul 14:17:03 14:21:58 48° 261° (W) 14:26:56 437.125 CW, 437.150 USB
AO-Echo 30 Jul 14:20:14 14:25:34 88° 256° (WSW) 14:30:55 ?
Gurwin Techsat 1B 30 Jul 14:21:31 14:26:29 42° 68° (ENE) 14:31:29 435.225 FM
KITSAT 1 30 Jul 14:27:23 14:35:20 56° 47° (NE) 14:43:13 435.175 FM
Uosat F 30 Jul 14:43:42 14:46:01 13° 55° (NE) 14:48:21 435.120 FM
Oscar 16 30 Jul 14:46:41 14:50:54 26° 266° (W) 14:55:09 437.025 USB, Beacon 2401.1428
ITAMSAT 1 30 Jul 15:10:19 15:15:02 34° 264° (W) 15:19:46 435.822 SSB
JAS-1B 30 Jul 15:19:35 15:28:37 67° 259° (W) 15:38:32 435.800 - 435.900 CW/SSB
Uribyol 2 30 Jul 15:30:17 15:34:17 22° 268° (W) 15:38:18 436.500 FM
AO-27 30 Jul 15:30:49 15:34:54 23° 267° (W) 15:39:00 436.795 MHz FM
TMSAT-1 30 Jul 15:35:33 15:40:49 64° 258° (WSW) 15:46:06 436.925 FM
AO-7 30 Jul 15:38:42 15:46:46 55° 62° (ENE) 15:54:51 29.400 - 29.500 MHz
Saudisat 1A 30 Jul 15:42:47 15:47:09 57° 49° (NE) 15:51:29 436.775 MHz
SO-50 30 Jul 15:45:09 15:46:06 11° 341° (NNW) 15:47:04 436.795 FM
RS-15 30 Jul 15:47:52 15:58:27 49° 323° (NW) 16:09:01 29.354 - 29.394 USB, Beacon 29.352 USB
UOSAT-12 30 Jul 15:51:37 15:55:52 34° 317° (NW) 16:00:13 437.025 FM, 437.400 FM
Gurwin Techsat 1B 30 Jul 16:02:01 16:06:35 29° 266° (W) 16:11:11 435.225 FM
AO-Echo 30 Jul 16:02:44 16:05:03 13° 273° (W) 16:07:23 ?
Uosat F 30 Jul 16:18:59 16:24:02 83° 74° (ENE) 16:29:06 435.120 FM
KITSAT 1 30 Jul 16:23:08 16:30:33 42° 249° (WSW) 16:37:55 435.175 FM
JAS-2 30 Jul 17:04:45 17:11:09 31° 61° (ENE) 17:17:08 435.800 - 435.900 CW/SSB, 435.910 FM
OPAL 30 Jul 17:14:03 17:19:07 64° 104° (ESE) 17:24:12 ?
JAS-1B 30 Jul 17:15:47 17:21:02 16° 281° (WNW) 17:26:34 435.800 - 435.900 CW/SSB
Saudisat 1A 30 Jul 17:23:12 17:26:21 19° 248° (WSW) 17:29:29 436.775 MHz
AO-7 30 Jul 17:32:10 17:39:49 39° 263° (W) 17:47:31 29.400 - 29.500 MHz
UOSAT-12 30 Jul 17:36:01 17:37:27 11° 340° (NNW) 17:38:53 437.025 FM, 437.400 FM
Hamsat 30 Jul 17:36:02 17:39:52 37° 70° (ENE) 17:43:46 145.90 MHz
Uosat F 30 Jul 18:01:04 18:03:27 13° 272° (W) 18:05:51 435.120 FM
RS-15 30 Jul 18:05:01 18:14:10 29° 355° (N) 18:23:25 29.354 - 29.394 USB, Beacon 29.352 USB
SO-67 30 Jul 18:26:50 18:29:15 18° 66° (ENE) 18:31:42 435.3500 MHz FM
JAS-2 30 Jul 18:48:02 18:55:45 67° 258° (WSW) 19:02:54 435.800 - 435.900 CW/SSB, 435.910 FM
OPAL 30 Jul 18:53:54 18:57:33 20° 302° (WNW) 19:01:13 ?
SO-50 30 Jul 19:08:26 19:11:34 17° 31° (NNE) 19:14:43 436.795 FM
Hamsat 30 Jul 19:12:44 19:15:58 22° 267° (W) 19:19:15 145.90 MHz
STRAND 1 30 Jul 19:40:12 19:45:12 53° 100° (E) 19:50:10 ?
SO-67 30 Jul 19:59:01 20:02:08 31° 264° (W) 20:05:17 435.3500 MHz FM
UKube-1 30 Jul 20:01:12 20:03:16 13° 58° (ENE) 20:05:20 145.840 MHz, 145.915 MHz
HO-68 30 Jul 20:09:07 20:15:40 40° 61° (ENE) 20:22:12 435.675 MHz FM
RS-15 30 Jul 20:20:15 20:30:25 40° 29° (NNE) 20:40:46 29.354 - 29.394 USB, Beacon 29.352 USB
JAS-2 30 Jul 20:38:28 20:41:51 13° 276° (W) 20:45:10 435.800 - 435.900 CW/SSB, 435.910 FM
Oscar 11 30 Jul 20:43:26 20:46:13 17° 62° (ENE) 20:49:01 145.825 FM, Beacon 2401.500 USB
SO-50 30 Jul 20:48:11 20:52:56 73° 52° (NE) 20:57:45 436.795 FM
UOSAT-12 30 Jul 20:59:02 21:02:06 17° 30° (NNE) 21:05:10 437.025 FM, 437.400 FM
FUNcube-1 30 Jul 21:11:14 21:13:06 13° 60° (ENE) 21:14:56 145.950 - 145.970 MHz USB
MaSat-1 30 Jul 21:14:03 21:18:10 59° 113° (ESE) 21:22:57 437.345 MHz
STRAND 1 30 Jul 21:20:06 21:24:04 23° 299° (WNW) 21:28:00 ?
UKube-1 30 Jul 21:34:31 21:38:53 79° 256° (WSW) 21:43:17 145.840 MHz, 145.915 MHz
HO-68 30 Jul 21:56:26 22:03:16 47° 261° (W) 22:10:09 435.675 MHz FM
Oscar 11 30 Jul 22:17:47 22:22:00 55° 260° (W) 22:26:16 145.825 FM, Beacon 2401.500 USB
SO-50 30 Jul 22:29:58 22:32:59 17° 249° (WSW) 22:36:02 436.795 FM
RS-15 30 Jul 22:33:00 22:44:04 84° 237° (WSW) 22:55:30 29.354 - 29.394 USB, Beacon 29.352 USB
UOSAT-12 30 Jul 22:38:23 22:43:08 69° 51° (NE) 22:47:48 437.025 FM, 437.400 FM
AO-40 30 Jul 22:41:00 04:06:36 33° 183° (S) 09:22:21 Beacon 2401.320
FUNcube-1 30 Jul 22:44:40 22:48:57 76° 258° (WSW) 22:53:11 145.950 - 145.970 MHz USB
MaSat-1 30 Jul 22:52:26 22:55:59 22° 316° (NW) 22:59:52 437.345 MHz
PCSat 30 Jul 23:20:24 23:22:37 13° 102° (ESE) 23:24:50 145.825 MHz
ISS 30 Jul 23:27:57 23:31:07 42° 144° (SE) 23:34:19 145.800 FM
UOSAT-12 31 Jul 00:19:41 00:22:46 18° 250° (WSW) 00:25:50 437.025 FM, 437.400 FM
Sapphire 31 Jul 00:26:59 00:32:02 43° 114° (ESE) 00:37:08 437.095 MHz 1200 baud AX-25 AFSK
RS-15 31 Jul 00:46:51 00:54:49 24° 259° (W) 01:03:00 29.354 - 29.394 USB, Beacon 29.352 USB
PCSat 31 Jul 00:59:44 01:05:09 82° 121° (ESE) 01:10:36 145.825 MHz
ISS 31 Jul 01:04:38 01:07:51 44° 343° (NNW) 01:11:06 145.800 FM
Oscar 10/S400 31 Jul 01:13:48 01:48:46 57° 183° (S) 10:12:41 145.825 - 145.975 CW/USB, Beacon 145.810 USB
Oscar 16 31 Jul 01:17:26 01:19:38 13° 87° (E) 01:21:50 437.025 USB, Beacon 2401.1428
Uribyol 2 31 Jul 02:01:02 02:03:58 15° 89° (E) 02:06:52 436.500 FM
AO-27 31 Jul 02:01:59 02:04:51 15° 89° (E) 02:07:43 436.795 MHz FM
Sapphire 31 Jul 02:10:36 02:15:34 36° 314° (NW) 02:20:33 437.095 MHz 1200 baud AX-25 AFSK
Oscar 19 31 Jul 02:25:47 02:30:49 50° 100° (E) 02:35:50 437.125 CW, 437.150 USB
AO-Echo 31 Jul 02:25:55 02:30:03 25° 93° (E) 02:34:03 ?
Gurwin Techsat 1B 31 Jul 02:36:44 02:39:16 13° 87° (E) 02:41:46 435.225 FM
ISS 31 Jul 02:42:03 02:45:05 30° 3° (N) 02:48:07 145.800 FM
PCSat 31 Jul 02:45:02 02:49:14 22° 322° (NW) 02:53:28 145.825 MHz
OPAL 31 Jul 02:54:29 02:58:16 23° 59° (ENE) 03:02:05 ?
Oscar 16 31 Jul 02:54:30 02:59:42 89° 285° (WNW) 03:04:53 437.025 USB, Beacon 2401.1428
JAS-1B 31 Jul 03:03:52 03:12:41 44° 93° (E) 03:20:15 435.800 - 435.900 CW/SSB
ITAMSAT 1 31 Jul 03:19:56 03:25:08 71° 103° (ESE) 03:30:16 435.822 SSB
Uribyol 2 31 Jul 03:38:52 03:44:02 76° 287° (WNW) 03:49:10 436.500 FM
AO-27 31 Jul 03:39:47 03:44:59 78° 287° (WNW) 03:50:09 436.795 MHz FM
AO-7 31 Jul 03:40:16 03:43:35 13° 84° (E) 03:46:53 29.400 - 29.500 MHz
TMSAT-1 31 Jul 03:48:53 03:53:55 43° 98° (E) 03:58:55 436.925 FM
Sapphire 31 Jul 03:59:02 04:00:41 11° 337° (NNW) 04:02:19 437.095 MHz 1200 baud AX-25 AFSK
AO-Echo 31 Jul 04:04:13 04:09:02 44° 291° (WNW) 04:13:40 ?
Oscar 19 31 Jul 04:05:44 04:09:52 25° 298° (WNW) 04:14:00 437.125 CW, 437.150 USB
Gurwin Techsat 1B 31 Jul 04:14:36 04:19:57 87° 285° (WNW) 04:25:15 435.225 FM
ISS 31 Jul 04:18:52 04:22:13 61° 23° (NNE) 04:25:33 145.800 FM
Uosat F 31 Jul 04:25:00 04:28:46 21° 92° (E) 04:32:29 435.120 FM
OPAL 31 Jul 04:32:00 04:36:49 53° 257° (WSW) 04:41:42 ?
Oscar 16 31 Jul 04:35:35 04:38:19 15° 304° (WNW) 04:41:03 437.025 USB, Beacon 2401.1428
JAS-1B 31 Jul 04:54:17 05:03:21 53° 297° (WNW) 05:11:12 435.800 - 435.900 CW/SSB
KITSAT 1 31 Jul 05:00:24 05:06:28 24° 104° (ESE) 05:12:32 435.175 FM
ITAMSAT 1 31 Jul 05:00:36 05:04:05 18° 301° (WNW) 05:07:32 435.822 SSB
Uribyol 2 31 Jul 05:20:33 05:22:39 13° 306° (NW) 05:24:44 436.500 FM
AO-27 31 Jul 05:21:25 05:23:39 13° 306° (NW) 05:25:53 436.795 MHz FM
STRAND 1 31 Jul 05:22:15 05:25:15 16° 57° (ENE) 05:28:14 ?
TMSAT-1 31 Jul 05:29:09 05:33:40 29° 296° (WNW) 05:38:10 436.925 FM
AO-7 31 Jul 05:29:44 05:38:02 65° 104° (ESE) 05:46:14 29.400 - 29.500 MHz
MaSat-1 31 Jul 05:29:48 05:34:41 35° 51° (NE) 05:39:23 437.345 MHz
ISS 31 Jul 05:55:53 05:58:44 26° 221° (SW) 06:01:35 145.800 FM
Gurwin Techsat 1B 31 Jul 05:56:18 05:59:09 15° 304° (NW) 06:01:59 435.225 FM
JAS-2 31 Jul 05:58:06 06:00:56 14° 84° (E) 06:03:39 435.800 - 435.900 CW/SSB, 435.910 FM
Uosat F 31 Jul 06:02:59 06:07:53 53° 290° (WNW) 06:12:44 435.120 FM
JAS-1B 31 Jul 06:46:28 06:51:33 16° 320° (NW) 06:56:23 435.800 - 435.900 CW/SSB
KITSAT 1 31 Jul 06:52:49 07:00:56 85° 304° (NW) 07:09:06 435.175 FM
Hamsat 31 Jul 06:54:38 06:58:53 54° 100° (E) 07:03:08 145.90 MHz
STRAND 1 31 Jul 06:58:37 07:03:46 84° 255° (WSW) 07:08:57 ?
MaSat-1 31 Jul 07:07:09 07:12:06 41° 251° (WSW) 07:16:46 437.345 MHz
SO-67 31 Jul 07:21:07 07:23:12 15° 91° (E) 07:25:16 435.3500 MHz FM
AO-7 31 Jul 07:23:06 07:30:22 35° 305° (NW) 07:37:35 29.400 - 29.500 MHz
Sapphire 31 Jul 07:29:41 07:32:58 16° 31° (NNE) 07:36:14 437.095 MHz 1200 baud AX-25 AFSK
Saudisat 1A 31 Jul 07:30:41 07:35:01 59° 122° (ESE) 07:39:23 436.775 MHz
JAS-2 31 Jul 07:41:05 07:47:05 85° 286° (WNW) 07:52:27 435.800 - 435.900 CW/SSB, 435.910 FM
PCSat 31 Jul 08:02:24 08:06:47 24° 40° (NE) 08:11:09 145.825 MHz
Hamsat 31 Jul 08:31:38 08:34:27 17° 297° (WNW) 08:37:17 145.90 MHz
STRAND 1 31 Jul 08:42:12 08:43:44 11° 273° (W) 08:45:17 ?
KITSAT 1 31 Jul 08:50:39 08:57:33 29° 329° (NNW) 09:04:27 435.175 FM
SO-67 31 Jul 08:53:12 08:56:26 36° 288° (WNW) 08:59:39 435.3500 MHz FM
Saudisat 1A 31 Jul 09:11:20 09:14:57 24° 322° (NW) 09:18:35 436.775 MHz
Sapphire 31 Jul 09:12:09 09:17:33 61° 53° (NE) 09:22:54 437.095 MHz 1200 baud AX-25 AFSK
AO-7 31 Jul 09:20:18 09:20:39 10° 329° (NNW) 09:20:59 29.400 - 29.500 MHz
HO-68 31 Jul 09:21:14 09:27:26 31° 94° (E) 09:33:35 435.675 MHz FM
UKube-1 31 Jul 09:21:43 09:24:12 15° 91° (E) 09:26:39 145.840 MHz, 145.915 MHz
JAS-2 31 Jul 09:27:51 09:31:08 15° 308° (NW) 09:34:16 435.800 - 435.900 CW/SSB, 435.910 FM
PCSat 31 Jul 09:45:21 09:50:47 74° 241° (WSW) 09:56:10 145.825 MHz
Oscar 11 31 Jul 10:03:23 10:06:48 22° 93° (E) 10:10:12 145.825 FM, Beacon 2401.500 USB
FUNcube-1 31 Jul 10:32:15 10:34:57 17° 91° (E) 10:37:40 145.950 - 145.970 MHz USB
KITSAT 1 31 Jul 10:50:50 10:56:04 18° 358° (N) 11:01:18 435.175 FM
Sapphire 31 Jul 10:56:22 11:00:32 23° 252° (WSW) 11:04:42 437.095 MHz 1200 baud AX-25 AFSK
UKube-1 31 Jul 10:56:30 11:00:48 60° 288° (WNW) 11:05:04 145.840 MHz, 145.915 MHz
HO-68 31 Jul 11:08:32 11:15:30 58° 294° (WNW) 11:22:27 435.675 MHz FM
SO-50 31 Jul 11:08:47 11:10:22 12° 108° (ESE) 11:11:57 436.795 FM
PCSat 31 Jul 11:31:49 11:33:14 11° 259° (W) 11:34:38 145.825 MHz
